CAPE
170 129 140 485 594 1040 1276 871 906 1066 1250 981 1016 890 1194 1171 1261 1416 1392 1654 1787 1741 1460 1464 1539 1482 1632 1516 1610 2063 2231 2332 2416 2690 2499 2434 2582 2579 2480 1902 1151 1248 2262
406 661 1167 1208 1403 1484 1474 1152 1014 1280 1323 1299 1074 988 1235 1266 1512 1519 1106 1626 1765 1341 1438 1614 1684 1828 1657 1475 1899 1992 2165 2463 2513 2651 2599 2450 2443 2496 2398 2090 101 485 1981
294 651 1218 1474 1558 1670 1734 1353 1180 1419 1380 1307 1405 1437 1479 1500 1454 1561 1527 1555 1756 1448 1529 1598 1709 1805 1690 1824 1967 2211 2301 2152 1558 1926 2362 2073 1752 2497 2261 2167 1415 1501 2105
387 741 840 1594 1431 1643 1742 1527 1488 1488 1432 1406 1172 1235 1619 1502 1620 1635 1438 1401 1689 1709 1562 1563 1592 1596 1712 1786 1979 1855 1655 1308 1337 1601 1329 1074 763 1711 2517 2239 2153 1658 1826
195 547 930 1547 1569 1748 1879 2063 2043 1758 1519 1400 1270 963 1245 1512 1542 1562 1596 1502 1586 1238 1432 1428 1457 1438 1495 1746 2055 2247 1800 1258 1122 1367 622 1117 399 962 1347 1987 1966 2087 1888
83 904 1333 1962 1743 1807 1767 1619 1483 1398 1020 868 932 1088 884 1527 1455 1512 1580 1570 1602 1484 1589 1641 1619 1594 1552 1472 1271 1231 1558 1749 1569 933 700 440 1584 1421 1638 1810 1529 1408 1688
418 744 1344 1865 1885 1633 2067 1672 1535 1486 253 143 1082 1012 1445 1280 1306 1544 1556 1559 1383 1416 1391 1261 1098 966 1033 1204 1302 1468 2085 1901 1861 1069 617 874 1206 1573 1907 1793 1683 1507 1460
1014 1230 834 524 718 1221 1405 1188 1138 1223 325 938 896 784 1324 1262 1390 1557 1366 1180 1332 1266 1272 1069 885 1022 1210 971 1020 1328 1674 1737 1357 918 712 810 555 1433 1532 1878 1586 1795 1864
756 966 1030 695 1330 417 1269 532 708 624 550 1103 644 1419 1273 1188 1124 1007 981 935 998 1121 1028 708 569 621 764 861 1065 1263 1422 1681 1747 1251 979 783 203 512 1139 1479 1663 1297 1414
894 943 1111 1180 904 424 646 210 240 261 120 299 746 1109 1118 1356 1281 1119 897 1007 856 845 808 634 458 407 507 532 550 910 917 1582 1469 1366 844 815 241 1037 721 1519 1332 1101 848
861 607 309 1149 844 1057 826 156 154 391 288 359 589 808 516 492 740 469 918 876 1004 1065 858 732 748 605 367 503 681 820 941 1409 1238 718 1261 758 311 939 588 636 841 728 184
652 754 787 742 451 662 260 347 623 615 168 1092 884 855 1375 720 410 277 622 975 988 779 647 511 503 375 718 1145 1378 1156 1573 399 382 118 1464 943 760 819 1422 2003 2112 628 464
607 542 542 720 896 710 464 696 662 352 17 379 1079 1295 1335 881 236 1 52 222 194 391 1134 906 1178 1100 1238 808 492 1118 1121 484 545 306 929 581 912 1095 1301 1172 1407 1220 987
115 241 483 605 710 627 822 332 337 281 120 242 860 1022 1352 516 20 96 72 343 661 657 911 1022 1129 1267 1250 1124 1013 111 220 86 156 749 1284 638 571 926 1366 1538 1397 1383 1038
77 201 396 447 639 722 511 167 94 13 28 14 1142 993 835 263 108 89 158 335 622 273 895 941 984 1476 1185 1019 735 389 491 513 553 632 1371 696 397 615 1017 1477 1381 1642 1975
170 154 479 466 580 594 580 51 3 66 0 48 361 986 541 460 126 130 251 351 504 438 635 881 1099 1081 761 364 469 606 378 453 870 792 966 1475 704 386 521 924 1354 1262 1442
240 237 91 304 450 548 313 45 31 139 0 0 481 988 1080 598 231 196 178 424 474 856 1224 1084 960 764 1051 322 478 273 267 151 462 779 817 1085 1449 842 325 353 594 643 1017
286 283 182 103 192 304 48 97 17 1 217 474 222 258 504 747 211 954 348 415 975 931 314 259 156 203 451 299 182 125 125 129 523 484 807 1025 847 1057 903 684 615 752 1126
288 493 439 253 109 146 402 2 19 49 194 317 181 317 278 402 521 1288 252 489 775 444 340 214 298 327 535 334 53 130 216 181 207 332 602 877 922 854 1061 925 722 754 522
33 151 363 235 49 108 302 121 10 131 76 93 24 301 749 542 514 1373 133 714 1121 323 994 683 659 1224 388 1108 81 31 7 216 165 452 249 702 967 1195 1036 1466 709 890 420
43 101 44 66 69 43 178 142 110 133 193 162 62 257 990 1120 706 1388 190 754 508 640 1780 1153 1208 1171 423 530 463 264 492 314 514 327 213 721 900 754 912 1548 1769 838 14
98 164 147 47 57 185 412 330 157 121 202 64 46 639 995 1020 1086 1202 1397 617 804 690 1391 1550 1355 1046 680 818 92 78 33 31 6 124 47 708 817 1085 1099 1109 1481 1779 900
168 268 304 196 393 409 489 426 247 502 419 31 74 155 954 1304 1182 1226 1320 1522 1802 1462 1528 1558 1205 1229 754 151 789 378 393 593 103 92 264 262 389 759 722 1139 1482 2171 1546
141 400 447 392 346 511 243 309 468 470 283 20 48 160 355 1050 1154 1129 1188 1282 1887 1147 1678 1047 571 1316 1370 506 343 528 697 803 193 47 158 104 74 589 949 657 889 1476 2027
225 438 500 577 464 512 718 353 438 252 93 4 32 443 63 974 1310 1236 1069 1181 1457 1631 951 1285 1468 1376 1344 556 196 37 16 137 864 427 133 185 170 64 118 1029 533 1142 1498
276 485 507 777 612 655 634 393 325 596 26 0 0 592 805 602 1196 1440 933 1237 1268 1213 1064 1217 1303 1102 1110 1144 1158 428 29 14 22 163 109 79 15 2 109 25 769 591 1152
CIN
-94 -132 -111 -47 -36 -9 -11 -31 -32 -20 -15 -16 -8 -11 -1 -4 -1 0 -2 0 0 0 0 0 0 -1 -1 -13 -16 -6 0 0 0 0 -4 -7 -1 -2 -7 -5 -27 -23 -3
-83 -23 -14 -8 -4 -3 -4 -24 -35 -13 -11 -10 -8 -7 -1 -3 -1 0 -10 -1 0 0 0 0 0 0 -1 -17 -2 0 0 0 0 -4 -7 -13 -7 -1 -3 -1 -223 -138 -4
-73 -31 -1 -4 0 0 -1 -13 -21 -7 -5 -3 0 0 0 0 -1 0 0 0 0 0 0 0 0 0 -1 -1 0 0 0 -10 -31 -28 -20 -1 -11 -2 -2 -2 -4 -6 0
-45 -29 -16 -2 -7 0 0 0 0 -3 -3 -3 -6 -3 0 0 0 0 0 0 0 0 0 0 0 0 0 0 -1 -7 -18 -42 -42 -38 -43 -7 -4 -45 -1 -3 -3 -8 -7
-87 -58 -38 -2 -1 0 0 0 -1 0 -1 -3 -3 -7 -3 0 0 0 0 0 0 -2 -2 0 0 -1 0 -2 -1 0 -9 -30 -41 -30 -1 -8 -14 -38 -34 -5 -3 -3 -1
-70 -5 -17 0 -1 -1 0 0 -3 -4 -8 -8 -5 -3 -5 0 0 0 0 0 0 0 0 0 0 0 0 -13 -33 -36 -23 -28 -24 -1 -1 -37 -2 -35 -13 -3 -5 -10 -7
-3 -10 -6 -2 0 -2 0 0 -1 -1 -42 -53 -4 -4 -1 0 0 0 0 0 0 0 0 -2 -7 -14 -24 -30 -32 -24 -12 -21 -11 -1 -14 -1 -13 -17 -4 -1 -4 -7 -9
-4 -6 -13 -55 -33 -8 -4 -6 -7 -1 -29 -10 -5 -5 0 -1 0 0 0 0 0 -6 -6 -19 -30 -27 -31 -53 -55 -43 -28 -30 -8 -4 -12 -4 -71 -32 -14 0 -5 0 0
-4 -1 -2 -12 -4 -53 -4 -15 -10 -12 -13 -5 -9 0 0 -1 0 -1 -3 -12 -10 -19 -25 -45 -54 -60 -64 -66 -60 -56 -54 -45 -9 -6 -7 -4 -124 -104 -46 -5 -1 -5 -2
-7 -1 -2 -1 -3 -34 -5 -39 -31 -22 -45 -13 -9 -2 -5 0 0 -5 -13 -17 -20 -31 -41 -55 -71 -78 -79 -90 -92 -78 -96 -25 -37 -20 -11 -48 -114 -68 -82 -22 -8 -7 -7
-4 -3 -10 -2 -5 -5 -5 -44 -32 -16 -22 -19 -13 -7 -29 -2 -5 -16 -7 -27 -29 -31 -47 -64 -66 -69 -90 -105 -96 -83 -98 -17 -67 -3 -14 -87 -122 -85 -105 -71 -32 -34 -119
-2 -3 -4 -3 -42 -5 -48 -14 -2 0 -52 -8 -1 -4 -1 -7 -10 -4 -10 -34 -38 -44 -55 -72 -79 -87 -91 -34 -42 -139 -50 -28 -2 -3 -32 -81 -105 -116 -68 -9 -1 -78 -78
-3 -9 -13 -5 -3 -2 -18 -15 -1 -7 -127 -37 -1 -6 -1 -2 -2 -2 -13 -38 -33 -69 -25 -51 -49 -60 -5 -2 -4 -82 -16 -4 -31 -73 -54 -66 -84 -101 -86 -76 -36 -21 -6
-4 -3 -11 -11 -7 -2 -1 -1 -1 -21 -71 -43 -2 -12 -9 -3 -2 0 -2 -4 -2 -2 -2 -5 -1 -4 -1 -1 -6 -12 -7 -3 -3 -6 -46 -69 -81 -95 -83 -78 -63 -47 -45
-11 -4 -12 -11 -3 -2 -1 -6 -42 -123 -111 -112 -3 0 -8 -1 -2 -2 -1 -4 -1 -10 -2 -4 -1 -3 -4 -8 -2 -1 -2 -5 -11 -5 -22 -70 -101 -116 -108 -82 -73 -49 -17
-8 -20 -4 -5 -4 -4 -3 -50 -69 -53 0 -57 -33 -6 -1 -3 -2 -4 -2 -3 -2 -2 -2 -1 -5 -3 -8 -4 -3 -3 -2 -3 -7 -11 -15 -46 -79 -103 -122 -106 -78 -60 -44
-9 -14 -26 -7 -2 -1 -10 -55 -54 -19 0 -4 -19 0 -5 -2 -7 -2 -4 -2 -3 -2 -5 -3 -3 -6 -11 -4 -4 -5 -4 -5 -2 -5 -3 -4 -42 -74 -104 -115 -116 -112 -81
-10 -18 -3 -12 -3 -2 -23 -38 -48 -7 -18 -7 -4 -2 -1 -1 -3 -12 -3 -3 -4 -2 -5 -7 -3 -7 -3 -4 -1 -4 -4 -8 -8 -5 -2 -2 -2 -5 -69 -82 -87 -85 -79
-6 -18 -13 -2 -8 -4 -17 -17 -46 -18 -1 -1 -17 -17 -2 -1 -1 -4 -6 -5 -7 -3 -4 -10 -2 -5 -3 -3 -4 -7 -5 -6 -7 -24 -4 -3 -2 -10 -3 -71 -67 -79 -93
-29 -8 -2 -3 -42 -17 -9 -13 -17 -2 -5 -2 -67 -5 -7 -1 -1 -4 -5 -4 -4 -8 -12 -3 -10 -4 -7 -13 -6 -8 -3 -6 -3 -4 -2 -2 -5 -8 -1 -10 -63 -64 -88
-41 -42 -37 -33 -44 -63 -2 -5 -3 -3 -2 -3 -3 -4 -1 -1 -1 -4 -18 -8 -11 -10 -5 -8 -3 -8 -6 -76 -18 -88 -25 -3 -7 -2 -2 -7 -7 -4 -2 -2 -13 -107 -171
-21 -34 -44 -50 -58 -10 -1 -1 -5 -20 -5 -2 -5 -2 -1 -1 -1 0 -6 -5 -6 -3 -7 -1 -3 -13 -11 -27 -42 -23 -85 -98 -27 -31 -5 -3 -11 -32 -23 -12 -6 -19 -104
-16 -29 -37 -31 -7 -2 -2 -3 -5 -3 -2 -39 -21 -28 -2 -1 -1 -3 -2 -11 -1 -9 -5 -2 -6 -6 -3 -56 -7 -6 -3 -2 -32 -34 -8 -3 -12 -29 -11 -10 -3 -17 -43
-28 -24 -26 -31 -19 -2 -6 -2 -2 -2 -4 -80 -43 -24 -5 -1 -1 -1 -1 -2 -1 -3 -14 -1 -7 -4 -6 -3 -2 -3 -8 -7 -5 -6 -6 -46 -6 -15 -5 -7 -8 -22 -13
-10 -27 -38 -37 -31 -10 -2 -2 -3 -6 -30 -91 -9 -3 -32 -4 -1 -1 -1 -1 -1 -2 -2 -7 -7 -2 -3 -2 -3 -4 -7 -2 -7 -1 -12 -13 -19 -25 -4 -6 -24 -56 -21
-17 -11 -29 -39 -49 -25 -17 -19 -13 -4 -64 0 0 -6 -2 -2 -2 -1 -2 -1 -2 -1 -5 -1 -2 -1 -1 -9 -7 -10 -2 -2 -2 -3 -4 -3 -3 -1 -14 -4 -15 -25 -4
Wind_Speed
10 8 11 10 13 14 15 8 19 23 25 25 23 23 21 19 21 24 25 25 25 26 26 25 24 23 23 22 20 20 19 19 19 19 18 18 14 16 16 14 13 12 9
18 19 21 12 21 25 4 10 22 24 22 25 23 20 18 19 23 25 25 24 24 26 26 25 25 25 25 23 21 21 21 20 20 19 19 19 16 16 16 15 16 21 15
16 20 19 2 5 13 8 18 23 19 23 24 21 21 20 21 23 23 23 23 24 26 27 27 27 27 27 26 25 25 24 22 21 20 19 18 17 17 15 15 17 16 15
14 18 21 11 7 4 8 18 22 15 23 23 20 21 21 22 23 22 23 24 25 26 26 26 27 28 27 27 26 24 21 20 18 15 16 16 21 21 17 15 15 14 12
13 23 13 15 3 2 7 11 15 8 20 21 20 20 22 22 23 22 24 24 25 25 25 26 26 27 27 26 25 22 14 16 16 12 10 18 21 22 18 16 16 14 13
16 13 10 13 7 2 4 7 6 11 13 17 18 19 22 24 23 23 25 24 26 26 25 26 26 25 24 23 21 19 16 16 15 16 18 13 18 17 18 17 16 15 14
19 7 6 5 5 5 4 6 6 8 9 16 20 20 22 24 24 24 24 24 24 24 24 24 24 23 21 20 19 18 17 17 16 18 16 15 22 19 18 17 16 15 14
8 7 4 0 3 3 7 6 8 9 14 19 19 20 23 25 25 24 23 23 24 25 24 24 23 21 19 18 17 17 16 16 20 22 17 18 23 20 17 15 15 14 14
2 5 0 2 3 12 12 10 11 10 7 14 15 15 21 25 24 22 22 23 24 25 24 23 22 20 18 17 16 14 13 13 14 22 22 21 22 21 19 17 16 14 14
5 2 7 4 10 7 7 9 14 11 9 9 13 12 25 25 24 21 23 22 23 23 22 21 20 19 17 16 14 15 15 10 17 22 23 21 19 19 19 20 18 16 15
1 6 4 4 2 5 4 6 14 7 9 8 14 18 26 23 25 25 13 22 22 22 21 20 19 18 17 16 15 17 16 16 16 22 24 21 19 17 18 18 19 20 14
4 2 12 3 6 9 4 12 8 5 6 16 19 20 21 14 12 5 15 21 21 22 22 21 19 18 15 15 11 10 11 12 15 20 24 20 18 16 15 14 15 15 13
11 10 1 2 4 8 7 12 7 5 7 18 18 17 22 18 19 19 15 22 22 23 22 21 19 16 15 10 8 13 11 5 17 15 23 19 16 15 14 13 14 14 14
6 2 4 2 3 5 6 5 5 5 8 19 16 20 21 22 23 16 21 16 22 21 20 18 17 13 14 13 11 12 10 5 4 9 21 20 16 14 14 13 13 13 13
3 1 2 3 6 5 6 5 5 5 11 17 19 23 24 20 20 21 14 21 19 18 19 18 16 14 14 12 10 9 7 18 10 12 19 20 17 15 13 13 13 13 13
5 6 6 1 4 3 5 4 6 9 11 26 22 24 19 19 20 17 15 18 22 19 15 16 15 15 14 11 10 11 11 11 16 9 10 17 16 15 14 13 13 13 13
14 13 12 4 1 3 3 5 8 7 28 28 25 15 21 19 20 18 19 19 18 14 18 19 17 17 15 13 15 16 13 14 16 12 9 13 15 14 15 14 13 12 13
16 16 19 14 12 8 3 5 4 26 27 29 19 15 20 20 16 22 15 23 11 18 19 18 17 18 16 14 14 12 11 12 13 10 11 10 10 12 15 17 15 13 12
15 16 18 21 17 10 4 4 19 25 17 12 15 24 15 16 17 24 23 14 15 20 18 19 15 15 15 15 14 13 13 12 11 13 10 10 12 13 8 18 14 13 13
12 13 14 16 15 9 4 8 13 7 19 1 27 26 11 16 15 22 18 16 21 21 16 15 18 16 17 17 13 5 12 11 13 12 10 11 18 15 15 17 17 10 10
14 12 13 9 5 7 10 15 11 11 6 11 27 16 9 17 12 18 20 16 22 21 15 14 19 15 10 16 19 16 16 14 15 16 16 16 18 15 17 16 16 17 13
16 15 14 11 8 12 12 18 12 15 8 9 4 11 21 14 16 16 22 13 13 18 13 15 19 20 16 18 18 18 10 10 16 10 15 16 11 5 15 15 15 14 14
15 16 16 14 10 13 15 12 5 5 1 8 1 10 12 16 14 19 15 22 12 22 7 8 10 16 11 7 18 19 14 16 9 13 14 15 10 13 19 13 13 12 13
16 16 17 17 14 15 16 12 9 6 3 3 2 5 11 14 16 15 19 20 18 22 13 16 14 16 17 21 19 17 19 21 20 17 3 11 9 8 16 18 10 9 15
16 16 15 18 17 16 14 9 10 12 8 10 4 3 2 5 11 18 19 20 21 22 21 22 21 19 22 22 24 22 22 23 9 8 19 9 11 18 12 15 9 13 11
17 16 15 17 18 18 19 18 22 13 15 10 9 8 1 4 7 17 19 20 22 23 22 20 18 20 23 26 24 24 24 24 23 5 11 16 15 18 14 1 15 11 9
Wind_Direction
94 96 74 232 216 211 200 31 67 89 100 119 135 130 138 143 130 103 90 108 103 86 96 101 104 98 89 73 64 60 55 55 51 55 56 55 33 44 48 22 337 265 341
105 108 113 93 192 169 359 42 94 104 83 113 138 151 154 143 114 106 107 113 118 97 98 87 91 90 90 79 62 61 61 59 64 65 70 63 47 40 43 31 66 163 78
103 106 107 182 240 215 43 87 108 80 97 126 148 150 146 139 123 123 122 123 124 102 99 99 96 99 100 99 98 90 94 107 109 99 104 89 60 62 46 38 78 88 79
99 104 109 92 72 38 54 88 107 62 108 130 158 153 143 133 125 134 128 129 123 114 117 119 118 115 109 102 102 113 131 125 130 150 158 135 108 80 57 53 60 62 56
103 122 97 100 60 313 50 60 72 249 89 155 165 159 144 133 130 138 129 131 124 127 130 130 126 123 120 116 119 125 154 142 139 163 196 317 51 54 58 56 69 61 27
110 106 97 98 75 314 3 34 347 240 223 192 180 177 150 129 133 139 133 140 131 133 136 132 127 126 128 131 129 131 142 151 140 114 88 289 329 7 61 83 66 40 41
120 94 95 82 48 272 318 13 327 303 328 204 178 174 156 133 140 143 142 146 145 143 144 139 136 135 139 139 135 132 138 139 137 123 123 106 28 72 84 91 84 73 62
80 88 96 309 354 334 281 318 300 308 232 185 188 179 160 134 138 152 157 152 148 142 144 140 137 141 144 147 144 141 142 145 127 115 128 117 69 75 94 90 86 71 72
338 77 153 288 357 253 261 277 276 298 287 229 215 209 175 137 148 163 167 160 150 142 141 143 145 148 149 153 149 139 138 153 151 104 101 101 88 82 91 106 103 55 24
267 12 258 281 92 76 295 276 255 281 276 279 227 225 160 140 154 173 164 166 162 155 154 152 150 153 155 155 152 137 140 194 187 98 96 86 92 98 96 97 89 80 41
316 91 269 281 345 64 339 16 256 309 279 284 225 205 154 120 154 148 208 171 171 167 164 160 157 160 165 164 154 139 138 143 141 88 87 86 95 103 100 88 65 23 84
96 312 250 280 80 79 7 93 65 341 302 224 216 204 202 225 219 282 208 182 178 170 167 164 158 158 170 186 155 185 124 135 152 110 73 85 97 110 118 113 100 97 134
115 110 320 357 349 68 67 96 59 329 304 226 218 221 201 210 207 200 215 182 175 168 164 159 160 166 164 220 166 123 130 168 80 114 66 85 97 108 118 120 117 110 126
102 79 73 30 14 46 51 25 340 328 287 228 235 215 211 200 188 226 199 218 192 175 180 183 173 210 175 172 162 131 136 163 220 117 86 87 100 110 114 118 124 132 136
104 31 339 311 305 335 325 327 332 342 282 243 229 212 208 218 215 212 241 206 211 206 189 189 192 183 173 167 192 214 174 91 145 142 94 83 96 108 117 123 124 132 149
99 112 87 357 306 343 323 10 0 326 301 221 225 213 226 229 220 233 238 223 198 213 235 215 227 212 192 210 190 191 175 152 103 172 125 85 88 107 110 135 136 142 147
122 124 124 86 25 56 20 19 48 38 150 200 212 240 225 230 224 233 228 227 230 263 227 194 199 169 192 200 114 120 164 124 114 125 158 113 102 105 108 122 135 152 160
125 129 144 123 122 109 74 13 46 194 159 169 229 243 232 231 239 218 246 206 282 241 219 216 213 222 210 199 157 172 153 165 116 151 135 127 163 123 108 104 106 129 156
114 121 135 149 137 120 89 53 190 153 237 258 246 213 245 246 243 219 219 268 267 234 246 234 255 188 233 213 193 179 126 187 178 137 141 154 131 141 29 79 111 137 144
107 113 121 133 138 131 114 117 130 110 138 321 187 213 256 248 256 231 249 262 233 229 279 273 257 257 224 271 209 271 146 156 160 134 163 153 82 120 109 74 104 77 171
120 118 121 112 116 140 144 146 135 132 115 252 208 249 273 252 271 254 247 268 246 248 281 309 207 151 242 193 312 204 297 123 136 98 85 99 81 111 62 79 94 85 131
135 134 131 122 117 142 145 151 141 143 125 126 290 264 241 266 263 267 251 286 284 271 310 304 275 239 274 292 259 277 318 77 215 176 78 84 134 192 55 80 75 110 133
140 142 142 135 117 140 146 146 257 265 185 135 126 268 267 264 274 261 279 255 300 256 347 37 15 287 313 151 284 264 265 353 215 94 86 68 158 98 44 352 97 103 99
147 144 142 142 132 139 147 144 154 156 183 207 156 125 270 274 275 279 269 266 275 260 314 309 325 316 312 260 303 320 316 298 272 246 4 171 176 60 56 38 206 18 80
150 147 144 146 141 139 142 145 145 149 141 143 150 276 227 288 295 275 268 266 270 270 282 282 288 304 279 287 268 294 288 274 143 142 241 159 191 314 80 39 123 89 126
151 149 145 148 148 147 150 151 160 148 151 147 153 150 180 277 303 275 269 270 271 271 278 293 306 299 287 275 279 286 282 289 251 241 217 228 223 239 23 53 16 190 121